カタログに戻る

NOAA 17 DEB

運用中PO
NORAD 49485·DEBRIS·🇺🇸 United States

打ち上げ Jun 24, 2002 から Vandenberg Space Force Base

Loading…

次のパス (今後24時間)

TLE

最新Source: Space-Track

元期: Sep 14, 2026, 09:49 UTC

1 49485U 02032DP  26257.40960257  .00007359  00000-0  11897-2 0  9994
2 49485  98.8813 318.4816 0017788  47.2057 313.0640 14.71564673275696

AllMySatでNOAA 17 DEBをリアルタイム追跡

Download on the App Store